(58984) = 1998 RU69 = 2000 CN97

Discovered at Socorro on 1998-09-14 by LINEAR.

Orbit

Orbit type: Main Belt

Note: WebGL enabled browser required.

epoch2023-09-13.0
epoch JD2460200.5
perihelion date2021-03-22.52146
perihelion JD2459296.02146
argument of perihelion (°)300.51907
ascending node (°)161.65756
inclination (°)3.81842
eccentricity0.1041555
perihelion distance (AU)2.1048152
Tisserand w.r.t. Jupiter3.5
ΔV w.r.t. Earth (km/sec)9.1
semimajor axis (AU)2.3495320
mean anomaly (°)247.53126
mean daily motion (°/day)0.27367290
aphelion distance (AU)2.594
period (years)3.6
P-vector [x]-0.21152796
P-vector [y]0.91799508
P-vector [z]0.33547124
Q-vector [x]-0.97714724
Q-vector [y]-0.20599142
Q-vector [z]-0.05244817
absolute magnitude15.36
phase slope0.15
uncertainty0
referenceMPEC 2024-A34
observations used1733
oppositions18
arc length (days)10745
first opposition used1994
last opposition used2023
residual rms (arc-secs)0.64
perturbers coarse indicatorM-v
perturbers precise indicator003Ek
first observation date used1994-07-08.0
last observation date used2023-12-08.0
computer nameMPCLINUX
JD of orbit computation2456937.293455
perihelion JD uncertainty (days)8.2227E-05
argument of perihelion uncertainty (°)5.5932E-05
ascending node uncertainty (°)5.0567E-05
inclination uncertainty (°)4.4947E-06
eccentricity uncertainty 2.9446E-08
perihelion distance uncertainty (AU)6.8724E-08
Minimum Orbit Intersection Distances (in AU)
for orbit epoch: 2460200.5, reference: E2024-A34
Mercury1.79415
Venus1.38943
Earth1.12334
Mars0.49509
Jupiter2.51427
Saturn6.93967
Uranus16.187
Neptune27.5013

Observations

1757 total observations over interval: 1994 07 08.27690 – 2023 12 08.095870
These data are available for download (format description).

Date (UT) J2000 RA J2000 Dec Magn Location Ref
1994 07 08.27690 21 33 30.53 -11 06 17.4 19.4 V 691 – Steward Observatory, Kitt Peak-Spacewatch MPS 79511
1994 07 08.30045 21 33 29.85 -11 06 21.2 19.3 V 691 – Steward Observatory, Kitt Peak-Spacewatch MPS 79511
1994 07 08.32476 21 33 29.10 -11 06 25.1 19.0 V 691 – Steward Observatory, Kitt Peak-Spacewatch MPS 79511
1998 09 14.36215 00 31 23.19 +01 05 28.6 18.7   704 – Lincoln Laboratory ETS, New Mexico MPS 2640
1998 09 14.38429 00 31 22.06 +01 05 19.9 19.0   704 – Lincoln Laboratory ETS, New Mexico MPS 2640
1998 09 14.40632 00 31 21.03 +01 05 09.3 19.3   704 – Lincoln Laboratory ETS, New Mexico MPS 2640
1998 09 17.38073 00 29 00.64 +00 43 30.0 18.0 R 699 – Lowell Observatory-LONEOS MPS 10771
1998 09 17.41434 00 28 58.92 +00 43 15.5   699 – Lowell Observatory-LONEOS MPS 10771
1998 09 17.43918 00 28 57.69 +00 43 05.3   699 – Lowell Observatory-LONEOS MPS 10771
1998 09 18.37666 00 28 11.84 +00 36 05.6 18.5   704 – Lincoln Laboratory ETS, New Mexico MPS 2640
1998 09 18.38953 00 28 11.15 +00 36 01.2 19.2   704 – Lincoln Laboratory ETS, New Mexico MPS 2640
1998 09 18.40304 00 28 10.42 +00 35 54.9 18.9   704 – Lincoln Laboratory ETS, New Mexico MPS 2640
1998 09 18.41656 00 28 09.77 +00 35 47.8 18.9   704 – Lincoln Laboratory ETS, New Mexico MPS 2640
1998 09 18.43004 00 28 09.14 +00 35 43.2 19.0   704 – Lincoln Laboratory ETS, New Mexico MPS 2640
1998 09 25.23174 00 22 18.99 -00 16 16.6 17.7 R 699 – Lowell Observatory-LONEOS MPS 54276
1998 09 25.25406 00 22 17.74 -00 16 26.9   699 – Lowell Observatory-LONEOS MPS 54276
1998 09 25.27642 00 22 16.58 -00 16 37.4   699 – Lowell Observatory-LONEOS MPS 54276
1998 09 25.296901 00 22 15.384 -00 16 47.43 17.93 V 645 – Apache Point-Sloan Digital Sky Survey MPS 79511
1998 09 25.300373 00 22 15.192 -00 16 49.05 18.61   645 – Apache Point-Sloan Digital Sky Survey MPS 79511
1998 09 26.20895 00 21 27.03 -00 23 49.7 18.3   704 – Lincoln Laboratory ETS, New Mexico MPS 2640
1998 09 26.22566 00 21 26.08 -00 23 57.8 18.3   704 – Lincoln Laboratory ETS, New Mexico MPS 2640
1998 09 26.24231 00 21 25.12 -00 24 06.2 18.3   704 – Lincoln Laboratory ETS, New Mexico MPS 2640
1998 09 26.25899 00 21 24.21 -00 24 14.1 18.5   704 – Lincoln Laboratory ETS, New Mexico MPS 2640
1998 09 26.27566 00 21 23.30 -00 24 20.6 18.5   704 – Lincoln Laboratory ETS, New Mexico MPS 2640
1998 09 27.29659 00 20 28.69 -00 32 13.7 18.4   704 – Lincoln Laboratory ETS, New Mexico MPS 2640
1998 09 27.31452 00 20 27.68 -00 32 21.4 18.4   704 – Lincoln Laboratory ETS, New Mexico MPS 2640
1998 09 27.33209 00 20 26.72 -00 32 30.5 18.6   704 – Lincoln Laboratory ETS, New Mexico MPS 2640
1998 09 27.34950 00 20 25.83 -00 32 37.1 18.8   704 – Lincoln Laboratory ETS, New Mexico MPS 2640
1998 09 27.36742 00 20 24.83 -00 32 45.8 18.8   704 – Lincoln Laboratory ETS, New Mexico MPS 2640
1998 10 17.16508 00 03 53.19 -02 50 33.9 18.2 R 699 – Lowell Observatory-LONEOS MPS 56849
1998 10 17.18992 00 03 52.02 -02 50 41.2   699 – Lowell Observatory-LONEOS MPS 56849
1998 10 17.21476 00 03 50.95 -02 50 50.1   699 – Lowell Observatory-LONEOS MPS 56849
2000 01 08.46935 11 51 26.89 +00 03 55.8 19.3   704 – Lincoln Laboratory ETS, New Mexico MPS 11105
2000 01 08.49934 11 51 27.91 +00 03 51.7 19.2   704 – Lincoln Laboratory ETS, New Mexico MPS 11105
2000 01 08.51470 11 51 28.52 +00 03 48.8 19.5   704 – Lincoln Laboratory ETS, New Mexico MPS 11105
2000 02 11.01568 11 56 25.79 +00 33 00.8 19.0   120 – Visnjan MPS 10436
2000 02 11.04692 11 56 25.05 +00 33 09.3   120 – Visnjan MPS 10436
2000 02 11.39873 11 56 17.39 +00 34 48.2 18.9   704 – Lincoln Laboratory ETS, New Mexico MPS 11105
2000 02 11.41296 11 56 17.09 +00 34 52.2 19.4   704 – Lincoln Laboratory ETS, New Mexico MPS 11105
2000 02 11.44160 11 56 16.24 +00 34 59.6 19.1   704 – Lincoln Laboratory ETS, New Mexico MPS 11105
2000 02 14.06427 11 55 11.73 +00 47 54.4 19.1   120 – Visnjan MPS 10436
2000 02 14.08230 11 55 11.31 +00 47 59.7   120 – Visnjan MPS 10436
2000 02 15.38200 11 54 34.648 +00 55 03.93 16.46 J I02 – Cerro Tololo Observatory, La Serena--2MASS MPS 79511
2000 02 24.89968 11 48 49.04 +01 54 55.7 18.8   120 – Visnjan MPS 11105
2000 02 24.94965 11 48 46.83 +01 55 17.0   120 – Visnjan MPS 11105
2000 02 27.31372 11 47 01.55 +02 12 24.9 17.6 R 703 – Catalina Sky Survey MPS 11105
2000 02 27.32997 11 47 00.77 +02 12 32.5 17.6 R 703 – Catalina Sky Survey MPS 11105
2000 02 27.34602 11 47 00.00 +02 12 39.4 17.9 R 703 – Catalina Sky Survey MPS 11105
2000 02 27.36213 11 46 59.18 +02 12 46.7 17.9 R 703 – Catalina Sky Survey MPS 11105
2000 02 27.95732 11 46 31.78 +02 17 09.0 18.8   120 – Visnjan MPS 11105
2000 02 27.97952 11 46 30.77 +02 17 19.6   120 – Visnjan MPS 11105
2000 02 28.86288 11 45 49.30 +02 23 56.0 18.4   120 – Visnjan MPS 11105
2000 02 28.88651 11 45 48.13 +02 24 07.7   120 – Visnjan MPS 11105
2000 02 29.38094 11 45 24.28 +02 27 53.7 17.9   704 – Lincoln Laboratory ETS, New Mexico MPS 11105
2000 02 29.39445 11 45 23.62 +02 27 59.9 18.0   704 – Lincoln Laboratory ETS, New Mexico MPS 11105
2000 02 29.40786 11 45 22.96 +02 28 06.0 18.1   704 – Lincoln Laboratory ETS, New Mexico MPS 11105
2000 02 29.42126 11 45 22.26 +02 28 12.8 18.1   704 – Lincoln Laboratory ETS, New Mexico MPS 11105
2000 02 29.43466 11 45 21.54 +02 28 18.3 19.7   704 – Lincoln Laboratory ETS, New Mexico MPS 11105
2000 03 03.35154 11 42 57.81 +02 50 52.1 17.7   704 – Lincoln Laboratory ETS, New Mexico MPS 11105
2000 03 03.36606 11 42 57.03 +02 50 58.9 17.8   704 – Lincoln Laboratory ETS, New Mexico MPS 11105
2000 03 03.38037 11 42 56.27 +02 51 05.6 17.8   704 – Lincoln Laboratory ETS, New Mexico MPS 11105
2000 03 03.39438 11 42 55.55 +02 51 12.6 17.9   704 – Lincoln Laboratory ETS, New Mexico MPS 11105
2000 03 03.40859 11 42 54.77 +02 51 19.1 18.0   704 – Lincoln Laboratory ETS, New Mexico MPS 11105
2000 03 08.24782 11 38 42.860 +03 30 03.00 16.41 J I02 – Cerro Tololo Observatory, La Serena--2MASS MPS 79511
2000 03 08.32245 11 38 39.02 +03 30 31.9 15.6   704 – Lincoln Laboratory ETS, New Mexico MPS 11105
2000 03 08.33837 11 38 38.12 +03 30 40.7 15.5   704 – Lincoln Laboratory ETS, New Mexico MPS 11105
2000 03 08.35324 11 38 37.31 +03 30 46.8 15.9   704 – Lincoln Laboratory ETS, New Mexico MPS 11105
2000 03 08.36931 11 38 36.44 +03 30 55.3 15.6   704 – Lincoln Laboratory ETS, New Mexico MPS 11105
2000 03 08.38354 11 38 35.57 +03 31 02.3 15.3   704 – Lincoln Laboratory ETS, New Mexico MPS 11105
2000 03 11.30940 11 35 58.88 +03 54 39.9 18.0   704 – Lincoln Laboratory ETS, New Mexico MPS 11105
2000 03 11.32197 11 35 58.16 +03 54 45.9 18.1   704 – Lincoln Laboratory ETS, New Mexico MPS 11105
2000 03 11.33451 11 35 57.46 +03 54 52.2 18.0   704 – Lincoln Laboratory ETS, New Mexico MPS 11105
2000 03 11.35218 11 35 56.45 +03 55 00.3 18.2   704 – Lincoln Laboratory ETS, New Mexico MPS 11105
2000 03 11.36473 11 35 55.76 +03 55 06.5 18.1   704 – Lincoln Laboratory ETS, New Mexico MPS 11105
2000 03 14.60067 11 33 01.27 +04 21 06.2 17.2   608 – Haleakala-AMOS MPS 11105
2000 03 14.61210 11 33 00.66 +04 21 11.5 17.4   608 – Haleakala-AMOS MPS 11105
2000 03 14.62283 11 33 00.06 +04 21 16.3 17.9   608 – Haleakala-AMOS MPS 11105
2000 04 02.22469 11 18 12.43 +06 31 26.7 18.1 R 699 – Lowell Observatory-LONEOS MPS 11869
2000 04 02.24851 11 18 11.46 +06 31 35.2   699 – Lowell Observatory-LONEOS MPS 11869
2000 04 02.27229 11 18 10.50 +06 31 42.8   699 – Lowell Observatory-LONEOS MPS 11869
2000 04 02.29605 11 18 09.59 +06 31 50.2   699 – Lowell Observatory-LONEOS MPS 11869
2000 04 05.12641 11 16 28.16 +06 46 52.9 18.1   704 – Lincoln Laboratory ETS, New Mexico MPS 11869
2000 04 05.14094 11 16 27.57 +06 46 57.2 18.2   704 – Lincoln Laboratory ETS, New Mexico MPS 11869
2000 04 05.15547 11 16 27.06 +06 47 00.8 18.4   704 – Lincoln Laboratory ETS, New Mexico MPS 11869
2000 04 05.17000 11 16 26.54 +06 47 06.6 17.6   704 – Lincoln Laboratory ETS, New Mexico MPS 11869
2000 04 05.18454 11 16 26.03 +06 47 11.1 17.5   704 – Lincoln Laboratory ETS, New Mexico MPS 11869
2000 04 05.28683 11 16 22.35 +06 47 41.1 17.0   704 – Lincoln Laboratory ETS, New Mexico MPS 11869
2000 04 05.30361 11 16 21.79 +06 47 46.2 17.4   704 – Lincoln Laboratory ETS, New Mexico MPS 11869
